EST,Max TemperatureF,Mean TemperatureF,Min TemperatureF,Max Dew PointF,MeanDew PointF,Min DewpointF,Max Humidity, Mean Humidity, Min Humidity, Max Sea Level PressureIn, Mean Sea Level PressureIn, Min Sea Level PressureIn, Max VisibilityMiles, Mean VisibilityMiles, Min VisibilityMiles, Max Wind SpeedMPH, Mean Wind SpeedMPH, Max Gust SpeedMPH,PrecipitationIn, CloudCover, Events, WindDirDegrees
2011-11-1,59,49,38,40,37,30,92,70,47,30.14,30.09,30.00,10,9,5,14,5,23,0.00,6,,179
2011-11-2,59,51,43,49,44,37,93,70,47,30.12,30.02,29.98,10,6,2,18,6,26,1.09,8,Rain,323
2011-11-3,50,41,31,39,36,30,92,74,56,30.26,30.15,30.08,10,10,10,15,6,22,0.00,5,,31
2011-11-4,50,39,27,34,30,25,92,72,52,30.38,30.33,30.26,10,10,10,8,1,14,0.00,2,,35
2011-11-5,55,44,32,32,30,26,89,61,32,30.33,30.24,30.10,10,10,10,12,3,17,0.00,2,,158
2011-11-6,63,52,41,46,39,26,72,59,45,30.08,29.98,29.91,10,10,10,18,8,31,0.00,5,,197
2011-11-7,59,47,34,47,32,24,76,52,28,30.22,30.13,29.98,10,10,10,20,7,30,0.00,3,,228
2011-11-8,45,41,37,40,38,33,93,82,70,30.20,30.13,30.05,10,7,3,15,6,21,0.50,7,Rain,43
2011-11-9,55,46,37,46,40,33,100,83,66,30.05,29.68,29.33,10,7,2,30,10,37,0.74,8,Rain,10
2011-11-10,44,39,34,34,31,23,89,67,45,29.87,29.80,29.69,10,10,3,23,9,29,0.03,7,Rain-Snow,265
2011-11-11,41,37,32,31,29,24,89,72,54,29.89,29.82,29.69,10,10,4,16,7,24,0.01,7,Snow,230
2011-11-12,60,48,35,38,35,32,85,64,42,29.72,29.66,29.55,10,10,10,13,6,24,0.00,2,,210
2011-11-13,61,56,51,52,47,37,83,67,50,29.53,29.35,29.23,10,10,2,17,9,31,0.09,7,Rain-Thunderstorm,203
2011-11-14,52,46,40,44,37,34,83,69,54,29.60,29.55,29.45,10,10,10,16,7,25,0.00,5,,209
2011-11-15,57,45,32,39,32,22,89,58,26,29.73,29.68,29.63,10,10,10,13,5,20,0.00,3,,210
2011-11-16,46,39,32,34,23,17,65,55,44,30.01,29.88,29.70,10,10,8,24,10,31,T,6,Snow,258
2011-11-17,34,31,28,27,23,16,92,71,49,30.13,29.99,29.94,10,5,0,20,8,24,0.05,8,Fog-Snow,262
2011-11-18,52,40,28,27,21,17,63,45,26,30.15,29.94,29.78,10,10,10,23,8,37,0.00,5,,203
2011-11-19,50,46,42,45,34,26,89,66,42,29.86,29.77,29.68,10,8,2,17,5,23,0.10,7,Rain,214
2011-11-20,42,37,31,38,28,19,89,73,56,30.37,30.14,29.73,10,10,7,23,9,32,0.01,8,Rain,333
2011-11-21,39,32,24,23,21,20,88,68,48,30.43,30.37,30.30,10,10,10,7,2,12,0.00,4,,135
2011-11-22,39,31,23,30,26,20,92,78,64,30.36,30.17,30.01,10,10,10,13,3,17,0.00,5,,81
2011-11-23,45,33,21,36,30,21,96,81,65,30.14,30.09,30.02,10,9,5,14,4,21,0.00,4,,229
2011-11-24,48,44,40,41,38,37,86,79,71,30.09,30.03,29.91,8,5,3,16,7,26,0.00,5,,210
2011-11-25,57,52,46,43,41,39,82,71,59,29.91,29.86,29.79,10,10,8,16,7,24,0.00,5,,212
2011-11-26,54,52,50,49,47,43,89,80,71,29.89,29.79,29.73,10,7,2,12,5,17,0.17,8,Rain,195
2011-11-27,50,42,34,48,36,28,93,84,75,30.11,29.89,29.72,10,8,4,18,10,24,0.43,8,Rain-Snow,324
2011-11-28,37,35,33,32,30,28,89,82,75,30.17,30.11,30.06,10,9,2,10,3,13,0.01,8,Snow,287
2011-11-29,40,37,34,33,28,25,82,71,59,30.08,30.01,29.89,10,10,10,24,15,33,T,7,,17
2011-11-30,45,39,32,26,22,12,75,52,28,30.08,29.95,29.86,10,10,10,20,8,31,0.00,5,,291